Weather History for Stafford, VA

Change the Weather History Date:

Monday, January 9, 2012

  Actual Average (KNYG) Record (KNYG)
Temperature  
Mean Temperature 34 °F -  
Max Temperature 37 °F 42 °F 66 °F (2006)
Min Temperature 30 °F 27 °F 19 °F (2004)
Degree Days  
Heating Degree Days 32    
Moisture  
Dew Point 31 °F    
Average Humidity 93    
Maximum Humidity 100    
Minimum Humidity 81    
Precipitation  
Precipitation 0.03 in - - ()
Sea Level Pressure  
Sea Level Pressure 30.28 in    
Wind  
Wind Speed 2 mph (NNE)    
Max Wind Speed 5 mph    
Max Gust Speed -    
Visibility 7 miles    
Events Fog , Rain , Snow    
Averages and records for this station are not official NWS values.
T = Trace of Precipitation, MM = Missing Value Source: NWS Daily Summary

Daily Weather History Graph

Daily Weather History Graph

Search for Another Location

Airport:

Trip Planner

Search our weather history database for the weather conditions in past years. The results will help you decide how hot, cold, wet, or windy it might be!

Date:

Astronomy

Jan. 09, 2012 Rise Set
Actual Time 7:27 AM EST 5:06 PM EST
Civil Twilight 6:57 AM EST 5:35 PM EST
Nautical Twilight 6:24 AM EST 6:08 PM EST
Astronomical Twilight 5:53 AM EST 6:40 PM EST
Moon 5:50 PM EST (1/9) 7:26 AM EST (1/9)
Length of Visible Light 10h 38m
Length of Day
9h 39m
Full, 100% of the Moon is Illuminated
Jan 9
Full
Jan 16
Last Quarter
Jan 23
New
Jan 30
First Quarter
Feb 7
Full

Hourly Weather History & Observations

Time (EST) Temp. Windchill Dew Point Humidity Pressure Visibility Wind Dir Wind Speed Gust Speed Precip Events Conditions
12:15 AM 33.8 °F 29.6 °F 30.2 °F 87% 30.35 in 10.0 mi NNE 4.6 mph - N/A   Clear
12:35 AM 33.8 °F - 28.4 °F 81% 30.35 in 10.0 mi Calm Calm - N/A   Clear
12:55 AM 32.0 °F 28.7 °F 28.4 °F 87% 30.36 in 10.0 mi NNE 3.5 mph - N/A   Clear
1:15 AM 30.2 °F 26.7 °F 28.4 °F 93% 30.37 in 10.0 mi NNE 3.5 mph - N/A   Clear
1:35 AM 33.8 °F 29.6 °F 28.4 °F 81% 30.37 in 10.0 mi NNE 4.6 mph - N/A   Clear
2:15 AM 30.2 °F - 26.6 °F 86% 30.38 in 10.0 mi Calm Calm - N/A   Clear
2:35 AM 30.2 °F - 28.4 °F 93% 30.37 in 10.0 mi Calm Calm - N/A   Clear
2:55 AM 30.2 °F 26.7 °F 26.6 °F 86% 30.37 in 10.0 mi North 3.5 mph - N/A   Clear
3:15 AM 33.8 °F - 28.4 °F 81% 30.37 in 10.0 mi Calm Calm - N/A   Clear
3:35 AM 30.2 °F - 26.6 °F 86% 30.36 in 10.0 mi Calm Calm - N/A   Clear
3:55 AM 30.2 °F 26.7 °F 28.4 °F 93% 30.36 in 10.0 mi North 3.5 mph - N/A   Clear
4:15 AM 30.2 °F - 28.4 °F 93% 30.37 in 10.0 mi Calm Calm - N/A   Clear
4:35 AM 30.2 °F - 28.4 °F 93% 30.37 in 10.0 mi Calm Calm - N/A   Clear
4:55 AM 30.2 °F 26.7 °F 28.4 °F 93% 30.37 in 10.0 mi North 3.5 mph - N/A   Scattered Clouds
5:15 AM 30.2 °F 26.7 °F 28.4 °F 93% 30.38 in 10.0 mi North 3.5 mph - N/A   Scattered Clouds
5:35 AM 30.2 °F - 28.4 °F 93% 30.38 in 10.0 mi Calm Calm - N/A   Mostly Cloudy
5:55 AM 30.2 °F - 28.4 °F 93% 30.38 in 10.0 mi Calm Calm - N/A   Overcast
6:35 AM 32.0 °F 28.7 °F 30.2 °F 93% 30.37 in 10.0 mi NW 3.5 mph - N/A   Mostly Cloudy
6:55 AM 32.0 °F - 30.2 °F 93% 30.37 in 10.0 mi Calm Calm - N/A   Overcast
7:15 AM 32.0 °F - 30.2 °F 93% 30.38 in 10.0 mi Calm Calm - N/A   Overcast
7:35 AM 32.0 °F - 30.2 °F 93% 30.38 in 10.0 mi Calm Calm - N/A   Overcast
7:55 AM 33.8 °F - 32.0 °F 93% 30.37 in 10.0 mi Calm Calm - N/A   Overcast
8:15 AM 33.8 °F - 32.0 °F 93% 30.36 in 10.0 mi Calm Calm - N/A   Overcast
8:35 AM 33.8 °F 30.8 °F 32.0 °F 93% 30.37 in 10.0 mi NW 3.5 mph - N/A   Overcast
8:55 AM 33.8 °F - 32.0 °F 93% 30.35 in 10.0 mi Calm Calm - N/A   Overcast
9:15 AM 33.8 °F - 30.2 °F 87% 30.34 in 10.0 mi Calm Calm - N/A   Overcast
9:35 AM 35.6 °F - 30.2 °F 81% 30.35 in 10.0 mi Calm Calm - N/A   Overcast
9:55 AM 35.6 °F - 30.2 °F 81% 30.36 in 10.0 mi Calm Calm - N/A   Overcast
10:15 AM 35.6 °F - 30.2 °F 81% 30.34 in 10.0 mi Calm Calm - N/A   Overcast
10:35 AM 35.6 °F - 30.2 °F 81% 30.34 in 10.0 mi Calm Calm - N/A   Overcast
11:15 AM 35.6 °F - 30.2 °F 81% 30.32 in 10.0 mi Calm Calm - N/A   Overcast
11:35 AM 35.6 °F - 30.2 °F 81% 30.31 in 10.0 mi Calm Calm - N/A   Overcast
11:55 AM 37.4 °F - 32.0 °F 81% 30.30 in 10.0 mi Calm Calm - N/A   Overcast
12:15 PM 37.4 °F - 32.0 °F 81% 30.29 in 7.0 mi Calm Calm - N/A Snow Light Snow
12:35 PM 35.6 °F - 32.0 °F 87% 30.29 in 5.0 mi Calm Calm - N/A Snow Light Snow
1:15 PM 35.6 °F - 33.8 °F 93% 30.26 in 4.0 mi Calm Calm - N/A Snow Light Snow
1:35 PM 35.6 °F - 33.8 °F 93% 30.25 in 4.0 mi Calm Calm - N/A Snow Light Snow
1:55 PM 35.6 °F 31.7 °F 33.8 °F 93% 30.23 in 5.0 mi NE 4.6 mph - N/A Rain Light Rain
2:15 PM 35.6 °F 31.7 °F 33.8 °F 93% 30.22 in 7.0 mi ENE 4.6 mph - 0.01 in Rain Light Rain
2:35 PM 35.6 °F 32.8 °F 35.6 °F 100% 30.22 in 7.0 mi ENE 3.5 mph - 0.01 in   Drizzle
2:55 PM 35.6 °F 32.8 °F 35.6 °F 100% 30.21 in 5.0 mi ENE 3.5 mph - 0.01 in Snow Light Snow
3:15 PM 33.8 °F - 33.8 °F 100% 30.20 in 4.0 mi Calm Calm - N/A Rain Light Rain
3:35 PM 33.8 °F - 33.8 °F 100% 30.20 in 4.0 mi Calm Calm - N/A Rain Light Rain
3:55 PM 33.8 °F - 33.8 °F 100% 30.21 in 3.0 mi Calm Calm - 0.01 in   Overcast
4:15 PM 33.8 °F - 33.8 °F 100% 30.22 in 1.5 mi Calm Calm - 0.01 in Snow Light Snow
4:35 PM 33.8 °F - 33.8 °F 100% 30.22 in 0.5 mi Calm Calm - 0.01 in Snow Light Snow
4:55 PM 33.8 °F - 33.8 °F 100% 30.21 in 0.5 mi Calm Calm - 0.01 in Snow Snow
5:15 PM 33.8 °F - 33.8 °F 100% 30.20 in 0.5 mi Calm Calm - N/A Snow Light Snow
5:35 PM 33.8 °F 29.6 °F 33.8 °F 100% 30.17 in 0.8 mi SE 4.6 mph - N/A Snow Light Snow
5:55 PM 33.8 °F - 33.8 °F 100% 30.17 in 1.2 mi Calm Calm - N/A Snow Light Snow
6:15 PM 33.8 °F - 33.8 °F 100% 30.17 in 1.5 mi Calm Calm - N/A   Overcast
6:35 PM 33.8 °F - 33.8 °F 100% 30.17 in 1.8 mi Calm Calm - N/A   Overcast
6:55 PM 33.8 °F - 33.8 °F 100% 30.16 in 1.0 mi Calm Calm - N/A   Overcast
7:15 PM 33.8 °F - 33.8 °F 100% 30.16 in 2.5 mi Calm Calm - N/A   Overcast
7:35 PM 33.8 °F - 33.8 °F 100% 30.17 in 1.5 mi Calm Calm - N/A   Overcast
7:55 PM 33.8 °F - 33.8 °F 100% 30.16 in 1.5 mi Calm Calm - N/A   Overcast
8:15 PM 33.8 °F - 33.8 °F 100% 30.15 in 0.8 mi Calm Calm - N/A   Overcast
8:35 PM 33.8 °F - 33.8 °F 100% 30.14 in 0.8 mi Calm Calm - N/A   Overcast
8:55 PM 33.8 °F - 33.8 °F 100% 30.13 in 1.8 mi Calm Calm - N/A   Overcast
9:15 PM 33.8 °F - 33.8 °F 100% 30.12 in 0.8 mi Calm Calm - N/A   Overcast
9:35 PM 33.8 °F - 33.8 °F 100% 30.13 in 0.5 mi Calm Calm - N/A Fog Fog
9:55 PM 33.8 °F - 33.8 °F 100% 30.12 in 0.8 mi Calm Calm - N/A   Overcast
10:15 PM 33.8 °F - 33.8 °F 100% 30.12 in 0.8 mi Calm Calm - N/A   Overcast
10:35 PM 33.8 °F - 33.8 °F 100% 30.13 in 1.2 mi Calm Calm - N/A   Overcast
10:55 PM 33.8 °F - 33.8 °F 100% 30.11 in 0.8 mi Calm Calm - N/A   Overcast
11:15 PM 33.8 °F - 33.8 °F 100% 30.10 in 0.8 mi Calm Calm - N/A   Overcast
11:35 PM 33.8 °F - 33.8 °F 100% 30.10 in 1.8 mi Calm Calm - N/A   Overcast
11:55 PM 33.8 °F - 33.8 °F 100% 30.09 in 1.8 mi Calm Calm - N/A   Overcast